Regional Weather Roundup
Issued by NWS Northern Indiana

Home | Current Version | Previous Version | Graphics & Text | Print | Product List | Glossary On
Versions: 1 2 3 4 5 6 7 8 9 10 11 12 13 14 15 16 17 18 19 20 21 22 23 24 25 26 27 28 29 30 31 32 33 34 35 36 37 38 39 40 41 42 43 44 45 46 47 48 49 50
000
ASUS43 KIWX 272010
RWRIWX

KIWX WEATHER ROUNDUP
NATIONAL WEATHER SERVICE NORTHERN INDIANA
400 PM EDT FRI MAR 27 2015

NOTE: "FAIR" INDICATES FEW OR NO CLOUDS BELOW 12,000 FEET WITH NO
SIGNIFICANT WEATHER AND/OR OBSTRUCTIONS TO VISIBILITY.

* THESE STATIONS ARE NOT UNDER NWS QUALITY CONTROL. THEY ALSO MAY NOT
  REPORT WEATHER SUCH AS PRECIPITATION OR FOG.

INZ001>027-272100-
NORTHERN INDIANA

CITY           SKY/WX    TMP DP  RH WIND       PRES   REMARKS
GARY*          PTSUNNY   30   9  40 NW22      30.17S WCI  17
VALPARAISO     LGT SNOW  25  16  68 N12G24    30.13S WCI  14
MICHIGAN CITY* LGT SNOW  27  14  59 N17G26    30.14F WCI  14
LAPORTE*       CLOUDY    29  16  58 N16G23    30.12F WCI  17
KNOX*            N/A     30  -6  21 N18G28    30.11S WCI  18
SOUTH BEND     CLOUDY    27  12  53 NW20G28   30.11S WCI  13
ELKHART*       MOSUNNY   28   1  31 N14G21    30.08F WCI  17
GOSHEN         MOSUNNY   31   9  39 NW18G28   30.06S WCI  19
MONTICELLO*    CLOUDY    29  18  63 N14G20    30.10S WCI  19
LOGANSPORT*    CLOUDY    30  14  51 NW13G22   30.09S WCI  20
ROCHESTER*     PTSUNNY   32  12  43 N16G24    30.09S WCI  21
WARSAW*        PTSUNNY   28   7  40 N17G23    30.06S WCI  16
ANGOLA*        SUNNY     28   7  40 N9        30.02F WCI  20
FORT WAYNE     PTSUNNY   30  10  43 NW12G21   30.04F WCI  20
HUNTINGTON*    CLOUDY    29   6  38 N13G18    30.05S WCI  19
PERU/GRISSOM   FLURRIES  29  15  54 N16       30.06S WCI  18
MARION*        CLOUDY    29  15  55 NW10      30.06S WCI  20

$$
INZ028>050-272100-
CENTRAL INDIANA

CITY           SKY/WX    TMP DP  RH WIND       PRES   REMARKS
LAFAYETTE      CLOUDY    31  12  45 N14       30.11S WCI  21
KOKOMO*          N/A     30  16  55 N17       30.06S WCI  18
MUNCIE*        CLOUDY    30  17  58 NW15      30.04F WCI  19
INDIANAPOLIS   FLURRIES  31  20  63 NW16G25   30.06S WCI  20

$$
MIZ043>046-050>051-056>058-064>065-071>073-077>080-272100-
SOUTHWEST LOWER MICHIGAN

CITY           SKY/WX    TMP DP  RH WIND       PRES   REMARKS
BATTLE CREEK   MOSUNNY   30   2  30 N13G24    30.04F WCI  20
BENTON HARBOR  CLOUDY    24  12  60 N14G24    30.13S WCI  12
COLDWATER*     MOSUNNY   29   0  28 N10G20    30.02F WCI  20
HILLSDALE*     PTSUNNY   28   4  37 N12       30.00F WCI  17
HOLLAND        MOSUNNY   27  12  53 NW18G28   30.11S WCI  14
GRAND RAPIDS   MOSUNNY   30   3  31 N14       30.06F WCI  19
KALAMAZOO      MOSUNNY   31   1  28 N14G23    30.05F WCI  21
STURGIS*       SUNNY     28   1  31 N10G17    30.04F WCI  19
THREE RIVERS*  FAIR      31   4  31 N12G20    30.05F WCI  21

$$
OHZ001>008-015>018-024>025-272100-
NORTHWEST OHIO

CITY           SKY/WX    TMP DP  RH WIND       PRES   REMARKS
WAUSEON*       PTSUNNY   28   9  43 N8G16     30.03F WCI  20
DEFIANCE       CLOUDY    29  10  45 N8        30.05F WCI  21
FINDLAY        CLOUDY    28  15  58 N8        30.01F WCI  20
TOLEDO EXPRESS CLOUDY    27  12  54 NW9       30.04S WCI  17
TOLEDO METCALF CLOUDY    28  14  55 NW12      30.04S WCI  18
LIMA           CLOUDY    29  15  56 N12       30.01F WCI  19

$$
AND FOR LAKE MICHIGAN COASTAL AND OPEN LAKE BUOY OBSERVATIONS

STATION/POSITION TEMP    WIND        PRES    VSBY  WAVE
                 AIR SEA DIR/SP/G                  HT/PER
                 (F)     (DEG/KT/KT) (MB)    (MI)  (FT/S)
CALUMET HARBOR    26     340/ 18/ 23 1020.6S
MICHIGAN CITY     23     340/ 23/ 27   N/A
BURNS HARBOR      26      10/ 21/ 26 1021.0F
SAINT JOSEPH      24     340/ 19/ 27 1021.0S

$$
&&



USA.gov is the U.S. government's official web portal to all federal, state and local government web resources and services.